Weather History for KMAN - July, 2013

Change the Weather History Date:

Tuesday, July 16, 2013

  Actual Average (KBOI) Record (KBOI)
Temperature  
Mean Temperature 80 °F 76 °F  
Max Temperature 98 °F 92 °F 109 °F (1898)
Min Temperature 62 °F 61 °F 42 °F (1993)
Degree Days  
Heating Degree Days 0 0  
Month to date heating degree days 4  
Since 1 June heating degree days 68  
Since 1 July heating degree days 4  
Cooling Degree Days 15 12  
Month to date cooling degree days 156  
Year to date cooling degree days 339  
Since 1 June cooling degree days 295  
Growing Degree Days 30 (Base 50)    
Moisture  
Dew Point 48 °F    
Average Humidity 34    
Maximum Humidity 59    
Minimum Humidity 17    
Precipitation  
Precipitation 0.00 in 0.01 in 0.24 in (1958)
Month to date precipitation 0.19  
Year to date precipitation 7.12  
Snow  
Snow 0.00 in 0.00 in 0.00 in (2006)
Month to date snowfall 0.0  
Since 1 July snowfall 0.0  
Snow Depth -    
Sea Level Pressure  
Sea Level Pressure 29.80 in    
Wind  
Wind Speed 6 mph (SW)    
Max Wind Speed 20 mph    
Max Gust Speed 33 mph    
Visibility 10 miles    
Events      
T = Trace of Precipitation, MM = Missing Value Source: NWS Daily Summary

Daily Weather History Graph

Daily Weather History Graph

Search for Another Location

Airport or City:

Trip Planner

Search our weather history database for the weather conditions in past years. The results will help you decide how hot, cold, wet, or windy it might be!

Date:

Astronomy

Jul. 16, 2013 Rise Set
Actual Time 6:19 AM MDT 9:24 PM MDT
Civil Twilight 5:45 AM MDT 9:58 PM MDT
Nautical Twilight 5:01 AM MDT 10:42 PM MDT
Astronomical Twilight 4:08 AM MDT 11:34 PM MDT
Moon 3:06 PM MDT (7/16) 12:57 AM MDT (7/16)
Length of Visible Light 16h 13m
Length of Day
15h 04m
First Quarter, 57% of the Moon is Illuminated
Jul 16
First Quarter
Jul 22
Full
Jul 29
Last Quarter
Aug 6
New
Aug 14
First Quarter

Hourly Weather History & Observations

Time (MDT) Temp. Heat Index Dew Point Humidity Pressure Visibility Wind Dir Wind Speed Gust Speed Precip Events Conditions
12:15 AM 75.2 °F - 44.6 °F 34% 29.79 in 10.0 mi West 5.8 mph - N/A   Partly Cloudy
12:35 AM 75.2 °F - 44.6 °F 34% 29.78 in 10.0 mi West 6.9 mph - N/A   Unknown
12:55 AM 75.2 °F - 44.6 °F 34% 29.79 in 10.0 mi West 8.1 mph - N/A   Overcast
1:15 AM 73.4 °F - 44.6 °F 36% 29.80 in 10.0 mi WSW 4.6 mph - N/A   Overcast
1:35 AM 73.4 °F - 42.8 °F 33% 29.79 in 10.0 mi West 8.1 mph - N/A   Overcast
1:55 AM 73.4 °F - 41.0 °F 31% 29.79 in 10.0 mi WNW 11.5 mph 16.1 mph N/A   Overcast
2:15 AM 73.4 °F - 41.0 °F 31% 29.80 in 10.0 mi WNW 9.2 mph - N/A   Unknown
2:35 AM 71.6 °F - 41.0 °F 33% 29.80 in 10.0 mi West 3.5 mph - N/A   Overcast
2:55 AM 71.6 °F - 41.0 °F 33% 29.80 in 10.0 mi West 4.6 mph - N/A   Unknown
3:15 AM 71.6 °F - 41.0 °F 33% 29.80 in 10.0 mi WNW 6.9 mph - N/A   Overcast
3:35 AM 71.6 °F - 41.0 °F 33% 29.80 in 10.0 mi WNW 9.2 mph - N/A   Overcast
3:55 AM 71.6 °F - 41.0 °F 33% 29.79 in 10.0 mi WNW 9.2 mph - N/A   Overcast
4:15 AM 69.8 °F - 41.0 °F 35% 29.80 in 10.0 mi West 5.8 mph - N/A   Unknown
4:35 AM 68.0 °F - 41.0 °F 37% 29.81 in 10.0 mi WNW 5.8 mph - N/A   Overcast
4:55 AM 68.0 °F - 41.0 °F 37% 29.82 in 10.0 mi WSW 3.5 mph - N/A   Overcast
5:15 AM 68.0 °F - 41.0 °F 37% 29.81 in 10.0 mi NW 4.6 mph - N/A   Unknown
5:35 AM 68.0 °F - 41.0 °F 37% 29.82 in 10.0 mi Calm Calm - N/A   Mostly Cloudy
5:55 AM 66.2 °F - 44.6 °F 46% 29.83 in 10.0 mi ENE 4.6 mph - N/A   Scattered Clouds
6:15 AM 64.4 °F - 44.6 °F 49% 29.83 in 10.0 mi Calm Calm - N/A   Scattered Clouds
6:35 AM 62.6 °F - 48.2 °F 59% 29.83 in 10.0 mi SSE 4.6 mph - N/A   Overcast
6:55 AM 62.6 °F - 48.2 °F 59% 29.84 in 10.0 mi Calm Calm - N/A   Overcast
7:15 AM 62.6 °F - 48.2 °F 59% 29.84 in 10.0 mi SE 3.5 mph - N/A   Overcast
7:35 AM 64.4 °F - 46.4 °F 52% 29.85 in 10.0 mi SSE 3.5 mph - N/A   Scattered Clouds
7:55 AM 66.2 °F - 48.2 °F 52% 29.85 in 10.0 mi SSE 3.5 mph - N/A   Clear
8:15 AM 68.0 °F - 46.4 °F 46% 29.85 in 10.0 mi Calm Calm - N/A   Clear
8:35 AM 71.6 °F - 46.4 °F 41% 29.85 in 10.0 mi Calm Calm - N/A   Clear
8:55 AM 73.4 °F - 46.4 °F 38% 29.85 in 10.0 mi Calm Calm - N/A   Clear
9:15 AM 73.4 °F - 48.2 °F 41% 29.86 in 10.0 mi Calm Calm - N/A   Clear
9:55 AM 77.0 °F - 44.6 °F 32% 29.86 in 10.0 mi WNW 3.5 mph - N/A   Clear
10:15 AM 77.0 °F - 46.4 °F 34% 29.86 in 10.0 mi Calm Calm - N/A   Clear
10:35 AM 78.8 °F - 46.4 °F 32% 29.86 in 10.0 mi West 3.5 mph - N/A   Clear
10:55 AM 80.6 °F - 46.4 °F 30% 29.86 in 10.0 mi WNW 3.5 mph - N/A   Clear
11:15 AM 82.4 °F - 46.4 °F 28% 29.85 in 1.8 mi SW 4.6 mph - N/A   Clear
11:35 AM 84.2 °F - 46.4 °F 27% 29.85 in 0.5 mi SSW 3.5 mph - N/A   Unknown
11:55 AM 84.2 °F - 46.4 °F 27% 29.84 in 10.0 mi South 4.6 mph - N/A   Clear
12:15 PM 84.2 °F - 46.4 °F 27% 29.84 in 10.0 mi SSW 4.6 mph - N/A   Clear
12:35 PM 86.0 °F - 46.4 °F 25% 29.83 in 10.0 mi SW 4.6 mph - N/A   Clear
12:55 PM 89.6 °F - 46.4 °F 22% 29.83 in 8.0 mi West 6.9 mph - N/A   Clear
1:15 PM 87.8 °F - 46.4 °F 24% 29.82 in 10.0 mi West 4.6 mph - N/A   Clear
1:35 PM 89.6 °F - 46.4 °F 22% 29.81 in 10.0 mi WNW 3.5 mph - N/A   Clear
2:55 PM 91.4 °F - 50.0 °F 24% 29.79 in 10.0 mi West 11.5 mph - N/A   Clear
3:15 PM 89.6 °F 87.3 °F 53.6 °F 29% 29.79 in 6.0 mi NW 9.2 mph - N/A   Partly Cloudy
3:35 PM 89.6 °F - 50.0 °F 26% 29.80 in 10.0 mi Calm Calm - N/A   Partly Cloudy
3:55 PM 93.2 °F - 48.2 °F 21% 29.79 in 10.0 mi West 4.6 mph - N/A   Clear
4:15 PM 95.0 °F - 48.2 °F 20% 29.77 in 10.0 mi ENE 5.8 mph - N/A   Clear
4:35 PM 98.6 °F - 48.2 °F 18% 29.76 in 10.0 mi ESE 8.1 mph - N/A   Clear
4:55 PM 98.6 °F - 46.4 °F 17% 29.76 in 10.0 mi ENE 5.8 mph - N/A   Clear
5:15 PM 96.8 °F - 48.2 °F 19% 29.75 in 10.0 mi NE 4.6 mph - N/A   Clear
5:35 PM 96.8 °F - 50.0 °F 20% 29.76 in 10.0 mi NE 10.4 mph - N/A   Clear
5:55 PM 95.0 °F 92.7 °F 53.6 °F 25% 29.75 in 10.0 mi NE 8.1 mph - N/A   Clear
6:15 PM 96.8 °F - 50.0 °F 20% 29.74 in 10.0 mi NNE 4.6 mph - N/A   Clear
6:35 PM 95.0 °F 93.0 °F 55.4 °F 26% 29.74 in 10.0 mi NE 6.9 mph - N/A   Clear
6:55 PM 95.0 °F - 50.0 °F 22% 29.74 in 10.0 mi NNE 4.6 mph - N/A   Clear
7:15 PM 95.0 °F - 50.0 °F 22% 29.73 in 10.0 mi NE 4.6 mph - N/A   Clear
7:35 PM 93.2 °F 90.8 °F 53.6 °F 26% 29.75 in 10.0 mi Calm Calm - N/A   Partly Cloudy
7:55 PM 89.6 °F 87.3 °F 53.6 °F 29% 29.76 in 3.0 mi SE 17.3 mph 29.9 mph N/A   Mostly Cloudy
8:15 PM 86.0 °F - 50.0 °F 29% 29.78 in 10.0 mi ESE 17.3 mph 29.9 mph N/A   Partly Cloudy
8:35 PM 86.0 °F 84.2 °F 53.6 °F 33% 29.76 in 10.0 mi ESE 19.6 mph 33.4 mph N/A   Clear
8:55 PM 82.4 °F 82.0 °F 57.2 °F 42% 29.76 in 10.0 mi ESE 12.7 mph 23.0 mph N/A   Clear
9:15 PM 84.2 °F 83.0 °F 55.4 °F 37% 29.77 in 10.0 mi SE 10.4 mph 21.9 mph N/A   Clear
9:35 PM 82.4 °F 81.7 °F 55.4 °F 39% 29.77 in 10.0 mi ESE 9.2 mph - N/A   Scattered Clouds
9:55 PM 82.4 °F 82.0 °F 57.2 °F 42% 29.78 in 10.0 mi ESE 9.2 mph - N/A   Partly Cloudy
10:15 PM 78.8 °F - 57.2 °F 47% 29.80 in 10.0 mi SSE 5.8 mph - N/A   Unknown
10:35 PM 78.8 °F - 57.2 °F 47% 29.80 in 10.0 mi SE 8.1 mph - N/A   Overcast
10:55 PM 78.8 °F - 55.4 °F 44% 29.81 in 10.0 mi SSE 9.2 mph - N/A   Scattered Clouds
11:15 PM 78.8 °F - 55.4 °F 44% 29.82 in 10.0 mi SE 6.9 mph - N/A   Mostly Cloudy
11:35 PM 78.8 °F - 55.4 °F 44% 29.82 in 10.0 mi SE 8.1 mph - N/A   Unknown
11:55 PM 78.8 °F - 53.6 °F 42% 29.83 in 10.0 mi SE 9.2 mph - N/A   Unknown